Location: *
(37.9500°N, 27.3666°E)
Time: 14:32:09
(UTC+00:00)

NOSS 3-1 (C) - Pass Details

Date: 24 October 2021
Orbit: 717 x 1491 km, 63.4° (Epoch: 25 November)

Event Time Altitude Azimuth Distance (km) Brightness Sun altitude
Rises 16:21:51 0° 225° (SW) 3,144 7.0 -12.6°
Reaches altitude 10° 16:24:08 10° 230° (SW) 2,265 6.3 -13.1°
Maximum altitude 16:29:09 54° 308° (NW) 985 3.8 -14.1°
Drops below altitude 10° 16:34:59 10° 25° (NNE) 2,623 5.5 -15.2°
Enters shadow 16:37:42 - 30° (NNE) 3,642 6.2 -15.8°
